TimeEET,TemperatureF,Dew PointF,Humidity,Sea Level PressureIn,VisibilityMPH,Wind Direction,Wind SpeedMPH,Gust SpeedMPH,PrecipitationIn,Events,Conditions,WindDirDegrees,DateUTC
12:00 AM,55.4,51.8,88,30.21,1.9,Calm,Calm,-,N/A,,Mist,0,2014-01-17 22:00:00
12:30 AM,55.4,51.8,88,30.21,1.9,Calm,Calm,-,N/A,,Mist,0,2014-01-17 22:30:00
1:00 AM,57.2,53.6,88,30.21,1.9,North,3.5,-,N/A,,Mist,350,2014-01-17 23:00:00
1:30 AM,57.2,53.6,88,30.21,1.2,North,3.5,-,N/A,,Mist,350,2014-01-17 23:30:00
2:00 AM,57,53,83,30.25,1,Calm,Calm,,,,Mist,,2014-01-18 00:00:00
2:00 AM,57.2,53.6,88,30.24,0.9,Calm,Calm,-,N/A,,Mist,0,2014-01-18 00:00:00
2:30 AM,57.2,53.6,88,30.24,0.9,Calm,Calm,-,N/A,,Mist,0,2014-01-18 00:30:00
3:00 AM,57.2,51.8,82,30.24,0.9,NNE,3.5,-,N/A,,Mist,20,2014-01-18 01:00:00
3:30 AM,55.4,51.8,88,30.21,0.9,Calm,Calm,-,N/A,,Mist,0,2014-01-18 01:30:00
4:00 AM,55.4,51.8,88,30.21,0.9,Calm,Calm,-,N/A,,Mist,0,2014-01-18 02:00:00
4:30 AM,55.4,51.8,88,30.21,0.9,Calm,Calm,-,N/A,,Mist,0,2014-01-18 02:30:00
5:00 AM,54,52,90,30.24,1,Calm,Calm,,,,Mist,,2014-01-18 03:00:00
5:00 AM,53.6,51.8,94,30.21,0.9,Calm,Calm,-,N/A,,Mist,0,2014-01-18 03:00:00
5:30 AM,53.6,50.0,88,30.21,0.9,Calm,Calm,-,N/A,,Mist,0,2014-01-18 03:30:00
6:00 AM,53.6,50.0,88,30.24,0.6,Calm,Calm,-,N/A,,Mist,0,2014-01-18 04:00:00
6:30 AM,53.6,50.0,88,30.24,0.6,Calm,Calm,-,N/A,,Mist,0,2014-01-18 04:30:00
7:00 AM,53.6,51.8,94,30.24,0.6,Calm,Calm,-,N/A,,Mist,0,2014-01-18 05:00:00
7:30 AM,53.6,51.8,94,30.24,0.6,Calm,Calm,-,N/A,,Mist,0,2014-01-18 05:30:00
8:00 AM,53,52,95,30.27,0,Calm,Calm,,,Fog,Partial Fog,,2014-01-18 06:00:00
8:00 AM,53.6,51.8,94,30.27,0.5,Calm,Calm,-,N/A,Fog,Fog,0,2014-01-18 06:00:00
8:30 AM,53.6,51.8,94,30.27,0.5,Calm,Calm,-,N/A,Fog,Fog,0,2014-01-18 06:30:00
9:00 AM,55.4,53.6,94,30.27,0.5,Calm,Calm,-,N/A,Fog,Fog,0,2014-01-18 07:00:00
9:30 AM,57.2,53.6,88,30.27,0.5,NE,4.6,-,N/A,Fog,Fog,40,2014-01-18 07:30:00
9:45 AM,59.0,55.4,88,30.27,1.9,NE,6.9,-,N/A,,Mist,40,2014-01-18 07:45:00
10:00 AM,59.0,53.6,82,30.27,1.9,NE,6.9,-,N/A,,Mist,40,2014-01-18 08:00:00
10:30 AM,60.8,53.6,77,30.27,3.7,NE,6.9,-,N/A,,Partly Cloudy,40,2014-01-18 08:30:00
11:00 AM,62,53,65,30.28,4,NE,8.1,,,,Mist,40,2014-01-18 09:00:00
11:00 AM,62.6,53.6,72,30.27,3.7,NE,8.1,-,N/A,,Scattered Clouds,40,2014-01-18 09:00:00
11:30 AM,64.4,51.8,64,30.24,6.2,NE,11.5,-,N/A,,Mostly Cloudy,40,2014-01-18 09:30:00
12:00 PM,64.4,51.8,64,30.24,6.2,NNE,10.4,-,N/A,,Mostly Cloudy,30,2014-01-18 10:00:00
12:30 PM,66.2,50.0,56,30.21,6.2,NE,10.4,-,N/A,,Mostly Cloudy,40,2014-01-18 10:30:00
1:00 PM,66.2,50.0,56,30.21,6.2,NNE,10.4,-,N/A,,Scattered Clouds,30,2014-01-18 11:00:00
1:30 PM,68.0,48.2,49,30.18,6.2,NE,10.4,-,N/A,,Scattered Clouds,40,2014-01-18 11:30:00
2:00 PM,67,47,37,30.21,6,NE,11.5,,,,Partly Cloudy,40,2014-01-18 12:00:00
2:00 PM,68.0,48.2,49,30.18,6.2,ENE,12.7,-,N/A,,Scattered Clouds,60,2014-01-18 12:00:00
2:30 PM,68.0,48.2,49,30.18,6.2,ENE,12.7,-,N/A,,Scattered Clouds,60,2014-01-18 12:30:00
3:00 PM,68.0,46.4,46,30.18,6.2,NE,11.5,-,N/A,,Scattered Clouds,40,2014-01-18 13:00:00
3:30 PM,68.0,46.4,46,30.18,6.2,NE,11.5,-,N/A,,Scattered Clouds,40,2014-01-18 13:30:00
4:00 PM,68.0,46.4,46,30.18,6.2,NE,11.5,-,N/A,,Scattered Clouds,40,2014-01-18 14:00:00
4:30 PM,66.2,44.6,46,30.18,-9999.0,NNE,12.7,-,N/A,,Clear,30,2014-01-18 14:30:00
5:00 PM,66.2,46.4,49,30.21,-9999.0,NNE,12.7,-,N/A,,Clear,30,2014-01-18 15:00:00
5:28 PM,64.4,46.4,52,30.21,-9999.0,NNE,11.5,-,N/A,,Clear,30,2014-01-18 15:28:00
6:00 PM,64.4,46.4,52,30.21,-9999.0,NNE,10.4,-,N/A,,Clear,30,2014-01-18 16:00:00
6:30 PM,62.6,46.4,55,30.21,-9999.0,NNE,8.1,-,N/A,,Clear,30,2014-01-18 16:30:00
7:00 PM,62.6,48.2,59,30.24,-9999.0,NNE,9.2,-,N/A,,Clear,30,2014-01-18 17:00:00
7:30 PM,62.6,50.0,63,30.24,-9999.0,NNE,12.7,-,N/A,,Clear,30,2014-01-18 17:30:00
8:00 PM,61,50,57,30.27,6,NNE,11.5,,,,,30,2014-01-18 18:00:00
8:00 PM,60.8,50.0,68,30.24,-9999.0,NNE,11.5,-,N/A,,Clear,30,2014-01-18 18:00:00
8:30 PM,59.0,50.0,72,30.24,-9999.0,NNE,11.5,-,N/A,,Clear,30,2014-01-18 18:30:00
9:00 PM,59.0,50.0,72,30.24,-9999.0,NE,11.5,-,N/A,,Clear,40,2014-01-18 19:00:00
9:30 PM,57.2,50.0,77,30.27,-9999.0,NE,8.1,-,N/A,,Clear,50,2014-01-18 19:30:00
9:58 PM,57.2,50.0,77,30.27,-9999.0,NE,8.1,-,N/A,,Clear,50,2014-01-18 19:58:00
10:29 PM,57.2,50.0,77,30.27,-9999.0,ENE,9.2,-,N/A,,Clear,60,2014-01-18 20:29:00
11:00 PM,57,51,73,30.29,6,ENE,9.2,,,,,70,2014-01-18 21:00:00
11:00 PM,57.2,50.0,77,30.27,-9999.0,ENE,9.2,-,N/A,,Clear,70,2014-01-18 21:00:00